IUS R/B(2), 15545

Orbit data source: Space-Track

IUS R/B(2), 15545 is space debris in GEO originally from a launch on Thu, 24 Jan 1985 UTC launched from the Air Force Eastern Test Range (AFETR). Debris objects in space refer to the collection of defunct objects orbiting the Earth. Examples of debris include non-operational satellites, rocket bodies, and fragments generated from explosions, collisions, or faulty payload assembly.

Loading next visibility...
Identifier
15545, 1985-010D
Orbit
GEO
Country
Flag of USUS
Related business
Manufacturer
UTC CSD
Mission
Spacecraft
Bus & Motor
ORBUS 6, Unknown motor
Mass
1,079 kg wet, ~1,079 kg dry
Launch date (UTC)
1985-01-24 (41 years ago)
Launch vehicle
Unknown
Launch site
Air Force Eastern Test Range (AFETR)
Object type
Payload
Rocket body
Debris
Shape & HBR
Unknown
Radar Cross Section
Medium (>0.1 m² and <1 m²)

Expand to show TLE details & history
Last TLE update: 6 days ago

TLE from 6 days ago
0 IUS R/B(2)
1 15545U 85010D   26154.66340764  .00000099  00000-0  00000-0 0  9996
2 15545  12.7845 312.4537 0028403 304.0210  55.6997  1.00810105 26781
Epoch: 2026-06-03T15:55Z
TLE epoch observation values (Epoch: 2026-06-03T15:55:18.420Z)
Latitude
0.00001°
Longitude
-178.51193°
Altitude
35,568.579 km
Speed
3.085 km/s
True Right ascension
20h 49m 44s
True Declination
0° 00' 00"
Sunlit
Object was in daylight at epoch
Visualization orbit readout
Latitude
Unknown
Longitude
Unknown
Altitude
Unknown
Speed
Unknown
Apparent Right ascension
Unknown
Apparent Declination
Unknown
Sunlit
N/A
Visualization observer readout
Local Sidereal Time
15:54:41
Azimuth
Unknown
Elevation
Unknown
Doppler factor
Unknown
Orbital elements
Apogee altitude
35,756.69 km
Perigee altitude
35,518.017 km
Semi-major axis
42,015.49 km
Eccentricity
0.00284
Inclination
12.7845°
RAAN
312.4537°
Arg. of periapsis
304.021°
True anomaly
55.96911°
Mean anomaly
55.6997°
Eccentric anomaly
55.83435°
Mean motion
0.25202 °/min
Orbital period
1,428.48 mins
BSTAR
0
Loading maneuver chart data...
Computing Atmospheric mass density...
Loading historical data...
Loading historical data...
Loading historical data...
Loading historical data...
Loading historical data...
Loading historical data...
Loading historical data...
Other satellites on launch #10 in the year 1985 (1985-01-24 UTC)

Documentation

Showing up to 5 results
|